Location: Arclight Observatory
(36.5667°N, 87.3333°W)
Time: 17:28:01
(UTC-06:00)

Daily predictions for brighter satellites

Satellite Brightness Start Highest point End
(mag) Time Altitude Azimuth Time Altitude Azimuth Time Altitude Azimuth
USA 215 3.3 16:49:29 10° SE 16:56:01 78° NE 17:02:33 10° NW
Cosmos 1607 4.2 16:51:35 10° NNW 16:57:56 54° NE 17:04:11 10° SE
YAOGAN 1 3.7 16:55:46 10° ESE 16:59:06 22° ENE 17:02:27 10° NNE
Okean 1 3.3 16:57:12 10° S 17:01:08 65° E 17:05:04 10° NNE
Cosmos 2279 Rocket 4.2 16:55:08 10° SSE 17:01:10 53° E 17:07:14 10° NNE
BREEZE-M DEB (TANK) 3.3 17:01:52 10° NNW 17:04:23 31° NE 17:10:26 10° ESE
PSLV R/B 4.2 17:02:09 10° SW 17:05:02 32° SSE 17:07:53 10° E
IDEFIX/ARIANE 42P 4.4 17:02:58 10° SSW 17:07:42 36° W 17:12:27 10° NNW
Delta 2 Rocket 4.1 17:03:17 10° W 17:08:54 80° S 17:14:00 10° E
Cosmos 1898 Rocket 4.0 17:07:28 10° SSW 17:12:36 62° WNW 17:17:47 10° N
ATLAS CENTAUR R/B 3.3 17:09:01 10° NW 17:12:43 35° WSW 17:16:39 10° S
COSMO-SKYMED 1 3.5 17:10:57 10° NE 17:14:41 27° E 17:18:23 10° SSE
Ariane Rocket 2.9 17:10:46 10° SSE 17:15:48 73° ENE 17:20:52 10° N
Cosmos 389 Rocket 3.0 17:12:53 10° N 17:16:09 35° ENE 17:19:20 10° SE
Cosmos 1975 2.8 17:12:41 10° N 17:16:41 61° E 17:20:40 10° SSE
Cosmos 2227 Rocket 3.3 17:12:52 10° N 17:17:12 22° ENE 17:21:31 10° ESE
Landsat 4 4.4 17:14:18 10° NNE 17:17:48 34° E 17:21:18 10° SSE
USA 116 3.5 17:14:55 10° NNE 17:18:02 45° E 17:21:00 10° S
Cosmos 2219 3.2 17:13:05 10° NNW 17:18:39 59° ENE 17:24:10 10° SE
Cosmos 1271 Rocket 3.3 17:17:57 10° N 17:21:25 34° ENE 17:24:55 10° SE
CZ-4 R/B 1.3 17:18:05 10° SSE 17:21:50 55° ENE 17:25:39 10° N
Cosmos 1500 4.0 17:18:45 10° NNW 17:22:27 54° W 17:26:06 10° S
Cosmos 1975 Rocket 3.3 17:18:17 10° SSW 17:22:43 75° W 17:27:13 10° N
Cosmos 1484 Rocket 2.9 17:18:54 10° S 17:22:54 85° WSW 17:26:56 10° NNW
Cosmos 1125 Rocket 4.5 17:19:56 10° SSE 17:24:22 28° E 17:28:37 11° NE
Cosmos 2298 Rocket 4.3 17:20:38 10° SSW 17:25:56 71° WNW 17:31:15 10° NNE
Lacrosse 5 4.3 17:22:40 10° WNW 17:26:52 27° WSW 17:31:04 10° S
Cosmos 1937 Rocket 4.0 17:23:43 10° SSW 17:28:50 61° WNW 17:33:58 10° N
SJ 16-02 2.5 17:26:09 10° SSE 17:29:41 24° E 17:32:10 15° NE
DELTA 2 R/B (1) 3.6 17:25:41 10° WSW 17:31:15 82° NNW 17:35:44 16° ENE
CORIOLIS 4.2 17:29:32 10° SSE 17:34:58 90° WSW 17:40:25 10° NNW
ERS-2 2.8 17:34:54 10° SE 17:38:10 31° ENE 17:41:28 10° N
Meteor 1-13 Rocket 4.2 17:33:40 10° S 17:39:08 66° E 17:44:44 10° NNE
CZ-4 R/B 4.4 17:39:50 10° SSE 17:43:56 66° ENE 17:48:02 10° N
Cosmos 2297 Rocket 2.9 17:39:47 10° N 17:44:46 31° ENE 17:49:43 10° ESE
Cosmos 1655 Rocket 4.2 17:39:14 10° N 17:45:37 81° W 17:52:01 10° S
USA 238 DEB 4.1 17:39:50 10° NNW 17:46:35 43° NE 17:53:22 10° ESE
USA 238 4.1 17:39:56 10° NNW 17:46:40 43° NE 17:53:27 10° ESE
Meteor 2-4 Rocket 3.6 17:44:43 10° S 17:50:09 63° E 17:55:29 10° NNE
SMAP 4.1 17:46:06 10° S 17:50:35 48° W 17:55:05 10° NNW
Cosmos 1536 Rocket 3.5 17:46:33 10° S 17:50:52 64° E 17:55:10 10° NNE
CZ-2C R/B 4.3 17:47:21 10° N 17:51:58 61° WNW 17:56:37 10° SSW
Cosmos 1666 2.7 17:51:20 10° N 17:55:05 81° W 17:58:49 10° S
Cosmos 372 Rocket 4.0 17:54:34 10° S 17:59:41 58° ESE 18:03:11 20° NNE
Cosmos 1025 Rocket 4.1 17:56:48 10° SSE 17:59:38 25° ESE 17:59:38 25° ESE
ALOS 2.3 17:56:26 10° SSE 18:00:59 56° ENE 18:05:34 10° N
SKYMED 2 3.6 17:58:30 10° N 18:02:51 79° WNW 18:07:10 10° SSW
Cosmos 2266 Rocket 3.8 17:59:08 10° N 18:05:11 68° E 18:11:18 10° SSE
Hubble Space Telescope 2.4 18:03:13 10° WSW 18:06:43 26° S 18:08:42 18° SE
Cosmos 1656 3.6 18:03:47 10° S 18:09:19 64° ESE 18:12:28 26° NE
Cosmos 2369 3.6 18:04:09 10° SSW 18:09:47 76° ESE 18:13:40 21° NNE
ISS -1.9 18:07:56 10° NNW 18:09:28 20° N 18:09:28 20° N
Cosmos 2278 3.6 18:06:21 10° SSW 18:11:59 75° ESE 18:15:39 23° NNE
Abrixas rocket 4.3 18:11:53 10° WNW 18:14:06 17° NNW 18:14:22 17° NNW
Cosmos 468 4.4 18:09:07 10° NNW 18:14:26 70° ENE 18:19:41 10° SSE
NOSS 3-2 (A) 4.3 18:10:59 10° NNW 18:18:09 43° NE 18:21:35 30° E
MOS 1 4.4 18:13:00 10° S 18:18:42 78° WSW 18:24:24 10° NNW
SPOT 3 Rocket 3.5 18:15:36 10° SSE 18:20:48 90° E 18:26:01 10° NNW
EO 1 Del DPAF 4.0 18:19:20 15° N 18:22:15 50° WNW 18:25:56 10° SSW
DMSP B5D1-3 4.4 18:18:11 14° NNE 18:22:38 90° W 18:27:44 10° SSW
ATLAS 2AS CENTAUR R/B 3.9 18:19:55 10° WSW 18:27:16 45° NW 18:34:19 13° NNE
FengYun 1-2 T 4.2 18:27:43 10° SSE 18:33:09 57° ENE 18:38:41 10° N
FENGYUN 3A 4.0 18:32:16 10° S 18:37:36 66° WSW 18:42:58 10° NNW
Thor Agena Rocket 3.5 18:38:34 62° ESE 18:38:34 62° ESE 18:43:44 10° S
Cosmos 1515 4.4 18:35:10 10° S 18:37:51 45° SSW 18:37:51 45° SSW
Cosmos 1697 Rocket 2.5 18:34:19 10° SSW 18:39:56 78° ESE 18:41:03 58° NE
ATLAS 3B R/B 2.5 18:33:20 10° NNW 18:39:59 90° WSW 18:45:48 13° SSE
Cosmos 158 Rocket 4.1 18:35:45 10° NNW 18:40:48 67° WSW 18:45:42 10° S
Cosmos 724 4.1 18:35:16 10° NNW 18:41:02 64° ENE 18:41:24 63° E
Atlas Centaur 2 2.7 18:40:33 10° WSW 18:44:36 31° S 18:44:41 31° S
OAO 1 Rocket 4.4 18:40:16 10° WSW 18:45:34 69° S 18:45:48 68° SSE
Cosmos 2082 3.6 18:40:59 10° NNW 18:46:37 86° WSW 18:51:45 13° SSE
NOSS 3-4 (A) 3.3 18:41:58 10° SSW 18:48:08 77° ESE 18:49:06 64° ENE
NOSS 3-4 (C) 3.3 18:42:04 10° SSW 18:48:15 76° ESE 18:49:08 65° ENE
Delta 2 Rocket 3.9 18:46:18 10° W 18:51:26 68° SSW 18:51:26 68° SSW
Cosmos 1269 Rocket 4.0 18:53:06 10° NNW 18:58:25 79° WSW 18:58:28 79° WSW
Cosmos 2227 Rocket 3.0 18:56:04 10° NNW 19:01:30 49° WSW 19:06:53 10° S
SJ 16-02 3.3 19:04:33 10° WSW 19:08:10 25° WNW 19:09:14 22° NW
DELTA 2 R/B (1) 4.4 19:12:27 10° W 19:16:30 46° NW 19:16:30 46° NW
Cosmos 1980 Rocket 3.1 19:13:23 10° SSW 19:17:02 42° SSW 19:17:02 42° SSW
CENTAUR R/B 4.2 19:17:08 10° NNW 19:20:58 27° N 19:20:58 27° N
Cosmos 2297 Rocket 3.7 19:23:45 10° NW 19:28:45 33° WSW 19:33:44 10° SSW
